EW4415 Weather Reports


Display with metric or nautical units.
time (UTC)temp
F
wind
direction
speed
MPH
gust
MPH
rain 1hr
in
rain 24hr
in
rain mn
in
humidity
%
barometer
mb
20260905083018 56 245 0.0 0.0 0.00 0.08 0.00 1 994.5
20260905081515 56 261 0.0 1.0 0.00 0.08 0.00 1 994.4
20260905080022 55 279 0.0 0.0 0.00 0.08 0.00 1 994.4
20260905074504 55 284 0.0 1.0 0.00 0.08 0.00 1 994.4
20260905073059 55 291 0.0 0.0 0.00 0.08 0.00 1 994.3
20260905071600 54 292 0.0 0.0 0.00 0.08 0.00 1 994.2
20260905070055 52 292 0.0 0.0 0.00 0.08 0.00 1 994.2
20260905064553 51 292 0.0 0.0 0.00 0.08 0.00 1 994.1
20260905063044 50 292 0.0 0.0 0.00 0.08 0.00 1 994.1
20260905061540 48 292 0.0 0.0 0.00 0.08 0.00 1 994.0
20260905060046 46 292 0.0 0.0 0.00 0.08 0.00 1 994.0
20260905054537 44 292 0.0 0.0 0.00 0.08 0.00 1 994.0
20260905053027 43 292 0.0 0.0 0.00 0.08 0.00 1 994.0
20260905051625 42 292 0.0 0.0 0.00 0.08 0.00 1 993.9
20260905050024 42 292 0.0 0.0 0.00 0.08 0.00 1 994.1
20260905044519 41 292 0.0 0.0 0.00 0.08 0.00 1 994.2
20260905043010 40 292 0.0 0.0 0.00 0.08 0.00 1 994.2
20260905041508 40 292 0.0 0.0 0.00 0.08 0.00 1 994.2
20260905040006 40 292 0.0 0.0 0.00 0.08 0.00 1 994.1
20260905034501 40 292 0.0 0.0 0.00 0.08 0.00 1 994.2
20260905033057 40 292 0.0 0.0 0.00 0.08 0.00 1 994.2
20260905031553 40 292 0.0 0.0 0.00 0.08 0.00 1 994.3
20260905030055 40 292 0.0 0.0 0.00 0.08 0.00 1 994.2
20260905024544 40 292 0.0 0.0 0.00 0.08 0.00 1 994.2
20260905023040 40 292 0.0 0.0 0.00 0.08 0.00 1 994.2
20260905021543 40 292 0.0 0.0 0.00 0.08 0.00 1 994.2
20260905020033 41 292 0.0 0.0 0.00 0.08 0.00 1 994.2
20260905014526 41 292 0.0 0.0 0.00 0.08 0.00 1 994.2
20260905013022 41 292 0.0 0.0 0.00 0.08 0.00 1 994.3
20260905011517 41 292 0.0 0.0 0.00 0.08 0.00 1 994.3
20260905010013 41 292 0.0 0.0 0.00 0.08 0.00 1 994.3
20260905004511 42 292 0.0 0.0 0.00 0.08 0.00 1 994.3
20260905003004 42 292 0.0 0.0 0.00 0.08 0.00 1 994.4
20260905001610 42 292 0.0 0.0 0.00 0.08 0.00 1 994.4
20260905000100 42 292 0.0 0.0 0.00 0.08 0.00 1 994.5
20260904234554 43 292 0.0 0.0 0.00 0.08 0.00 1 994.6
20260904233058 43 292 0.0 0.0 0.00 0.08 0.00 1 994.8
20260904231542 43 292 0.0 0.0 0.00 0.08 0.00 1 995.0
20260904230043 43 292 0.0 0.0 0.00 0.08 0.00 1 995.1
20260904224537 44 292 0.0 0.0 0.00 0.08 0.00 1 995.2
20260904223034 44 292 0.0 0.0 0.00 0.08 0.00 1 995.4
20260904221525 44 292 0.0 0.0 0.00 0.08 0.00 1 995.4
20260904220021 45 292 0.0 0.0 0.00 0.08 0.00 1 995.6
20260904214516 45 292 0.0 0.0 0.00 0.08 0.00 1 995.6
20260904213013 45 292 0.0 0.0 0.00 0.08 0.00 1 995.6
20260904211511 46 292 0.0 0.0 0.00 0.08 0.00 1 995.7
20260904210003 46 292 0.0 0.0 0.00 0.08 0.00 1 995.8
20260904204559 47 292 0.0 0.0 0.00 0.08 0.08 1 995.9
20260904203054 47 292 0.0 0.0 0.00 0.08 0.08 1 996.0
20260904201606 48 292 0.0 0.0 0.00 0.08 0.08 1 996.2
20260904200050 48 292 0.0 0.0 0.00 0.08 0.08 1 996.2
20260904194541 48 292 0.0 0.0 0.00 0.08 0.08 1 996.3
20260904193038 49 292 0.0 0.0 0.00 0.08 0.08 1 996.5
20260904191536 49 292 0.0 0.0 0.00 0.08 0.08 1 996.7
20260904190028 49 292 0.0 0.0 0.01 0.08 0.08 1 996.8
20260904184526 49 292 0.0 0.0 0.01 0.08 0.08 1 997.0
20260904183019 50 292 0.0 0.0 0.01 0.08 0.08 1 997.2
20260904181515 51 292 0.0 0.0 0.01 0.08 0.08 1 997.1
20260904180013 51 292 0.0 0.0 0.00 0.07 0.07 1 997.1
20260904174517 52 292 0.0 0.0 0.00 0.07 0.07 1 997.2
20260904173003 53 292 0.0 0.0 0.00 0.07 0.07 1 997.2
20260904171605 54 292 0.0 0.0 0.00 0.07 0.07 1 997.2
20260904170104 54 292 0.0 0.0 0.00 0.07 0.07 1 997.3
20260904164549 55 292 0.0 0.0 0.00 0.07 0.07 1 997.4
20260904163046 55 292 0.0 0.0 0.00 0.07 0.07 1 997.4
20260904161540 56 292 0.0 0.0 0.00 0.07 0.07 1 997.4
20260904160037 56 292 0.0 0.0 0.00 0.07 0.07 1 997.4
20260904154531 57 294 0.0 2.0 0.00 0.07 0.07 1 997.4
20260904153031 57 311 0.0 0.0 0.00 0.07 0.07 1 997.5
20260904151521 57 311 0.0 0.0 0.00 0.07 0.07 1 997.5
20260904150026 57 267 0.0 2.0 0.00 0.07 0.07 1 997.5
20260904144514 57 288 0.0 1.0 0.00 0.07 0.07 1 997.5
20260904143026 57 188 0.0 0.0 0.00 0.07 0.07 1 997.6
20260904141504 57 188 0.0 0.0 0.07 0.07 0.07 1 997.7
20260904140101 56 262 0.0 0.0 0.07 0.07 0.07 1 997.8
20260904134604 56 262 0.0 0.0 0.07 0.07 0.07 1 997.8
20260904133051 58 265 0.0 2.0 0.07 0.07 0.07 8 997.7
20260904131546 63 80 0.0 2.0 0.00 0.00 0.00 46 997.6
20260904130042 64 109 0.0 4.0 0.00 0.00 0.00 52 997.5
20260904124549 64 155 0.0 8.0 0.00 0.00 0.00 54 997.5
20260904123032 63 154 0.0 0.0 0.00 0.00 0.00 57 997.5
20260904121528 62 196 0.0 1.0 0.00 0.00 0.00 58 997.6
20260904120024 62 46 0.0 0.0 0.00 0.00 0.00 56 997.6
20260904114526 62 35 0.0 0.0 0.00 0.00 0.00 58 997.7
20260904113031 61 35 0.0 0.0 0.00 0.00 0.00 57 997.7
20260904111512 62 35 0.0 0.0 0.00 0.00 0.00 57 997.8
20260904110007 63 35 0.0 3.0 0.00 0.00 0.00 58 997.9
20260904104504 63 60 0.0 0.0 0.00 0.00 0.00 54 997.8
20260904103058 61 32 0.0 4.0 0.00 0.00 0.00 54 998.0
20260904101558 61 67 0.0 3.0 0.00 0.00 0.00 53 998.2
20260904100050 61 95 0.0 1.0 0.00 0.00 0.00 47 998.4
20260904094557 61 44 0.0 1.0 0.00 0.00 0.00 45 998.4
20260904093040 61 44 0.0 5.0 0.00 0.00 0.00 36 998.6
20260904091536 60 291 0.0 2.0 0.00 0.00 0.00 10 998.6
20260904090032 59 113 0.0 0.0 0.00 0.00 0.00 1 998.7
20260904084528 59 88 0.0 0.0 0.00 0.00 0.00 1 998.7